Total_Precipitation_Accumulation
0.00 0.00 0.01 0.01 0.02 0.02 0.04 0.09 0.22 0.26 0.20 0.28 0.36 0.56 0.66 0.77 0.95 0.95 0.82 0.87 1.17 1.38 1.64 2.01 2.58 3.46 4.53 5.41 5.69 5.15 4.58 4.17 3.72 3.26 2.64 2.26 2.13 2.01 1.80 1.57 1.28 1.12 1.02 1.01
0.00 0.02 0.02 0.01 0.02 0.04 0.06 0.08 0.19 0.26 0.18 0.21 0.35 0.66 0.94 0.92 0.84 0.82 0.85 0.82 0.98 1.36 1.81 2.44 3.43 4.08 4.35 4.47 4.20 3.83 3.50 3.26 2.79 2.33 2.00 1.79 1.74 1.59 1.40 1.29 1.17 0.94 0.84 0.83
0.01 0.03 0.02 0.02 0.03 0.09 0.10 0.10 0.18 0.25 0.15 0.16 0.36 0.80 1.07 1.08 0.85 0.73 0.71 0.67 0.92 1.37 1.95 2.74 3.31 3.44 3.18 2.87 2.77 2.69 2.68 2.40 2.24 2.11 1.95 1.84 1.79 1.60 1.33 1.15 1.02 0.83 0.72 0.68
0.01 0.02 0.02 0.02 0.04 0.08 0.09 0.06 0.06 0.09 0.15 0.33 0.52 1.03 1.18 0.97 0.91 0.75 0.72 0.70 0.83 1.14 1.47 1.89 2.14 2.04 2.15 2.26 2.28 2.36 2.41 2.12 2.09 1.99 1.63 1.43 1.32 1.20 1.03 0.94 0.94 0.96 0.80 0.66
0.02 0.03 0.02 0.02 0.03 0.04 0.04 0.03 0.04 0.11 0.22 0.41 0.60 0.85 0.96 0.76 0.89 0.72 0.59 0.61 0.63 0.81 0.89 0.99 1.12 1.25 1.43 1.53 1.69 1.97 2.17 2.12 1.96 1.78 1.61 1.50 1.33 1.27 1.23 1.18 1.14 1.06 0.95 0.78
0.03 0.04 0.03 0.02 0.02 0.03 0.03 0.05 0.12 0.23 0.40 0.89 0.84 0.82 1.02 0.92 0.90 0.69 0.51 0.46 0.53 0.67 0.75 0.78 0.81 0.92 1.06 1.16 1.31 1.58 1.87 2.00 1.94 1.78 1.63 1.54 1.47 1.39 1.30 1.25 1.20 1.05 0.96 0.90
0.09 0.07 0.05 0.03 0.03 0.05 0.05 0.07 0.24 0.58 0.98 1.14 0.71 0.78 1.04 0.79 0.68 0.51 0.30 0.27 0.41 0.60 0.73 0.78 0.73 0.67 0.71 0.86 1.02 1.13 1.29 1.53 1.64 1.61 1.53 1.48 1.54 1.41 1.21 1.10 1.04 1.00 0.88 0.80
0.14 0.12 0.06 0.04 0.04 0.06 0.05 0.04 0.11 0.22 0.33 0.51 0.66 1.05 1.18 0.83 0.55 0.30 0.19 0.22 0.36 0.51 0.53 0.58 0.57 0.50 0.47 0.58 0.79 0.91 1.08 1.24 1.43 1.41 1.35 1.31 1.36 1.30 1.18 1.14 0.96 0.88 0.85 0.80
0.05 0.05 0.04 0.04 0.05 0.06 0.05 0.03 0.04 0.07 0.12 0.32 0.66 0.96 0.91 0.72 0.50 0.31 0.22 0.22 0.22 0.27 0.35 0.46 0.49 0.47 0.43 0.46 0.65 0.77 0.93 1.12 1.31 1.40 1.37 1.27 1.28 1.30 1.24 1.14 1.01 0.88 0.93 0.90
0.02 0.02 0.04 0.04 0.05 0.06 0.05 0.04 0.04 0.05 0.11 0.23 0.50 0.87 1.05 0.86 0.58 0.34 0.30 0.28 0.28 0.30 0.30 0.42 0.50 0.44 0.39 0.38 0.46 0.59 0.76 0.97 1.11 1.26 1.25 1.13 1.26 1.25 1.21 1.14 1.03 0.93 0.89 0.88
0.02 0.02 0.05 0.05 0.06 0.08 0.07 0.06 0.06 0.05 0.08 0.14 0.33 0.55 0.51 0.45 0.36 0.31 0.34 0.32 0.26 0.30 0.28 0.37 0.42 0.42 0.40 0.34 0.36 0.44 0.58 0.74 0.84 0.93 1.00 0.98 1.04 1.02 1.01 1.04 1.03 1.00 0.97 0.93
0.02 0.02 0.03 0.06 0.09 0.08 0.09 0.09 0.09 0.08 0.08 0.09 0.16 0.34 0.29 0.30 0.30 0.29 0.37 0.38 0.31 0.30 0.38 0.34 0.29 0.35 0.42 0.34 0.29 0.33 0.42 0.55 0.63 0.68 0.73 0.77 0.83 0.89 0.88 0.88 0.96 1.03 0.99 0.94
0.03 0.02 0.03 0.11 0.17 0.15 0.10 0.08 0.09 0.10 0.09 0.08 0.20 0.39 0.30 0.22 0.30 0.28 0.31 0.48 0.52 0.27 0.26 0.26 0.26 0.32 0.36 0.32 0.29 0.30 0.34 0.42 0.49 0.50 0.57 0.67 0.74 0.76 0.75 0.77 0.86 0.95 1.00 1.00
0.03 0.02 0.03 0.09 0.18 0.20 0.16 0.11 0.11 0.10 0.07 0.07 0.13 0.32 0.30 0.26 0.28 0.36 0.46 0.43 0.33 0.21 0.18 0.19 0.23 0.32 0.35 0.33 0.29 0.30 0.37 0.46 0.51 0.55 0.66 0.76 0.82 0.83 0.83 0.81 0.85 0.92 1.00 1.02
0.03 0.02 0.02 0.03 0.06 0.11 0.15 0.15 0.12 0.08 0.05 0.07 0.10 0.19 0.18 0.24 0.29 0.37 0.36 0.31 0.31 0.27 0.22 0.24 0.28 0.41 0.44 0.44 0.41 0.41 0.47 0.56 0.65 0.75 0.90 1.07 1.19 1.19 1.11 1.08 1.11 1.13 1.18 1.22
0.03 0.03 0.03 0.03 0.06 0.10 0.12 0.13 0.10 0.07 0.05 0.05 0.07 0.13 0.15 0.24 0.29 0.34 0.30 0.29 0.34 0.36 0.29 0.29 0.38 0.48 0.46 0.42 0.41 0.43 0.50 0.58 0.62 0.70 0.80 0.96 1.14 1.21 1.17 1.15 1.23 1.31 1.35 1.47
0.06 0.06 0.04 0.04 0.07 0.09 0.15 0.12 0.09 0.08 0.07 0.07 0.10 0.13 0.16 0.23 0.34 0.40 0.39 0.42 0.41 0.34 0.27 0.27 0.34 0.39 0.44 0.38 0.35 0.37 0.43 0.56 0.68 0.80 0.91 0.98 1.08 1.18 1.21 1.22 1.30 1.38 1.38 1.38
0.16 0.14 0.11 0.09 0.10 0.15 0.15 0.11 0.11 0.10 0.11 0.14 0.17 0.18 0.22 0.25 0.32 0.38 0.39 0.38 0.38 0.40 0.44 0.47 0.55 0.54 0.51 0.45 0.42 0.46 0.55 0.66 0.74 0.82 0.91 0.96 1.06 1.17 1.28 1.41 1.48 1.52 1.56 1.55
0.27 0.28 0.22 0.16 0.15 0.17 0.19 0.17 0.17 0.19 0.22 0.22 0.30 0.35 0.33 0.33 0.33 0.40 0.45 0.44 0.49 0.47 0.47 0.55 0.63 0.68 0.59 0.58 0.58 0.65 0.73 0.84 0.90 0.94 1.01 1.07 1.13 1.26 1.35 1.42 1.52 1.60 1.67 1.63
0.32 0.35 0.32 0.24 0.26 0.27 0.26 0.27 0.22 0.23 0.44 0.39 0.41 0.46 0.45 0.46 0.59 0.71 0.71 0.60 0.57 0.58 0.57 0.63 0.63 0.61 0.68 0.71 0.73 0.79 0.88 0.98 1.05 1.06 1.08 1.12 1.26 1.34 1.35 1.35 1.41 1.46 1.50 1.48
0.36 0.42 0.39 0.35 0.34 0.32 0.29 0.29 0.30 0.52 0.77 0.73 0.70 0.68 0.59 0.64 0.70 0.70 0.64 0.67 0.63 0.64 0.72 0.68 0.65 0.67 0.70 0.69 0.72 0.81 0.92 1.01 1.05 1.07 1.06 1.11 1.21 1.34 1.38 1.42 1.39 1.35 1.33 1.34
0.55 0.60 0.58 0.54 0.63 0.63 0.43 0.44 0.61 0.78 0.77 0.89 0.78 0.68 0.65 0.62 0.61 0.58 0.59 0.68 0.73 0.73 0.78 0.73 0.66 0.63 0.64 0.69 0.73 0.81 0.89 0.91 0.95 0.96 0.97 1.01 1.03 1.05 1.12 1.28 1.33 1.33 1.33 1.34
0.72 0.77 0.80 0.73 0.78 0.70 0.57 0.60 0.65 0.61 0.63 0.74 0.70 0.60 0.59 0.56 0.53 0.50 0.55 0.61 0.63 0.66 0.70 0.69 0.69 0.68 0.69 0.73 0.78 0.86 0.88 0.91 0.92 0.99 1.03 1.01 1.00 1.05 1.11 1.18 1.20 1.18 1.15 1.11
0.85 0.67 0.79 0.97 0.96 0.81 0.67 0.56 0.56 0.55 0.55 0.58 0.65 0.68 0.63 0.56 0.51 0.49 0.50 0.54 0.63 0.69 0.69 0.69 0.69 0.71 0.78 0.84 0.89 0.87 0.84 0.89 0.96 0.99 1.01 1.04 1.08 1.05 1.05 1.11 1.10 1.06 1.04 1.01
0.90 0.83 1.00 1.35 1.40 1.17 1.00 0.84 0.73 0.66 0.63 0.64 0.69 0.72 0.73 0.69 0.63 0.61 0.54 0.53 0.54 0.59 0.59 0.62 0.68 0.74 0.81 0.84 0.88 0.91 0.89 0.91 0.96 0.93 0.90 0.97 1.03 0.98 0.93 1.02 1.09 1.01 1.00 1.04
0.86 1.00 1.27 1.57 1.45 1.38 1.27 1.02 0.86 0.80 0.81 0.75 0.77 0.79 0.78 0.75 0.71 0.66 0.64 0.56 0.50 0.51 0.59 0.66 0.69 0.75 0.81 0.84 0.87 0.87 0.87 0.93 0.97 1.00 0.94 0.89 0.89 0.90 0.93 0.98 1.01 1.00 0.87 0.87